Overview Statistics Trail Chart Weather Telemetry Raw packets
 

This is the latest recevied weather packets stored in our database for station/object WW6Q. If no packets are shown the sender has not sent any weather packets the latest 10 day(s).

<< 22 23 24 25 26 27 28 >>
Time Temp. Humidity Pressure Rain* Wind** Luminosity Snow
1788474212 26.11° C 73% 1014.4 hPa 0 mm - 76 W/m² -
1788473907 26.11° C 74% 1014.6 hPa 0 mm - 104 W/m² -
1788473606 26.11° C 74% 1014.8 hPa 0 mm - 117 W/m² -
1788473304 26.67° C 75% 1014.7 hPa 0 mm - 100 W/m² -
1788472999 26.67° C 73% 1014.5 hPa 0 mm - 109 W/m² -
1788472697 27.22° C 75% 1014.7 hPa 0 mm - 91 W/m² -
1788472394 27.22° C 74% 1014.8 hPa 0 mm - 154 W/m² -
1788472091 27.22° C 72% 1014.8 hPa 0 mm - 151 W/m² -
1788471813 27.78° C 70% 1014.6 hPa 0 mm - 138 W/m² -
1788471482 27.78° C 68% 1014.4 hPa 0 mm - 126 W/m² -
1788471177 27.78° C 67% 1014.2 hPa 0 mm - 139 W/m² -
1788470874 27.78° C 68% 1014.3 hPa 0 mm - 139 W/m² -
1788470570 27.22° C 66% 1014.2 hPa 0 mm - 122 W/m² -
1788470269 27.22° C 68% 1014 hPa 0 mm - 125 W/m² -
1788469966 27.22° C 68% 1014 hPa 0 mm - 130 W/m² -
1788469661 27.22° C 70% 1014.1 hPa 0 mm - 137 W/m² -
1788469357 27.22° C 71% 1014.2 hPa 0 mm - 156 W/m² -
1788469056 27.22° C 72% 1014 hPa 0 mm - 154 W/m² -
1788468756 27.22° C 72% 1014.2 hPa 0 mm - 182 W/m² -
1788468451 26.67° C 74% 1014.4 hPa 0 mm - 249 W/m² -
1788468147 26.67° C 75% 1014.4 hPa 0 mm - 249 W/m² -
1788467843 26.11° C 78% 1014.4 hPa 0 mm - 255 W/m² -
1788467538 25.56° C 80% 1014.3 hPa 0 mm - 232 W/m² -
1788467231 25.56° C 84% 1014.2 hPa 0 mm - 232 W/m² -
1788466928 25° C 83% 1014.3 hPa 1.27 mm - 260 W/m² -

* Rain latest hour (hover to see other rain measurements)
** Current wind speed in m/s (hover to see current wind gust speed)